Location: Asheville, NC
(35.6000°N, 82.5500°W)
Time: 20:30:26
(UTC-04:00)

RS-15 - Pass Details

Date: 17 March 2018
Orbit: 1890 x 2154 km, 64.8° (Epoch: 20 June)

Event Time Altitude Azimuth Distance (km) Brightness Sun altitude
Exits shadow 23:40:44 29° 42° (NE) 3,351 9.1 -45.9°
Drops below altitude 10° 23:45:24 10° 35° (NE) 4,600 10.0 -46.6°
Sets 23:48:47 0° 33° (NNE) 5,578 10.6 -47.0°
